Location: Bratsk-Energetik
(56.3300°N, 101.7600°E)
Time: 08:25:33
(UTC+08:00)

ISS - Pass Details

Date: 22 July 2018
Orbit: 402 x 408 km, 51.6° (Epoch: 17 July)

Event Time Altitude Azimuth Distance (km) Brightness Sun altitude
Rises 00:18:39 0° 248° (WSW) 2,322 -0.1 -12.2°
Reaches altitude 10° 00:20:50 10° 238° (WSW) 1,464 -1.2 -12.3°
Maximum altitude 00:23:50 34° 172° (S) 696 -3.2 -12.4°
Drops below altitude 10° 00:26:51 10° 106° (ESE) 1,468 -1.3 -12.5°
Sets 00:29:03 0° 97° (E) 2,330 -0.2 -12.6°
